Torna al catalogo

STARLINK-4158

AttivoComunicazioniVLEO
NORAD 53027·PAYLOAD·🇺🇸 United States

Lanciato Jul 7, 2022 da Cape Canaveral Space Force Station

Loading…

Prossimi Passaggi (prossime 24 ore)

TLE

AggiornatoSource: CelesTrak SupGP

Epoca: Sep 14, 2026, 21:58 UTC

1 53027C 22076AT  26257.91576389  .00027120  00000+0  77632-3 0  2570
2 53027  53.1576 299.6248 0001276  97.4270 210.6679 15.35369639    13

Traccia STARLINK-4158 in tempo reale con AllMySat

Download on the App Store